Regional Weather Roundup
Issued by NWS

Home | Current Version | Previous Version | Graphics & Text | Print | Product List | Glossary On
Versions: 1 2 3 4 5 6 7 8 9 10 11 12 13 14 15 16 17 18 19 20 21 22 23 24 25 26 27 28 29 30 31 32 33 34 35 36 37 38 39 40 41 42 43 44 45 46 47 48 49 50
000
ASUS43 KDMX 261107
RWRIA

WEATHER ROUNDUP FOR IOWA
NATIONAL WEATHER SERVICE DES MOINES IA
600 AM CDT SUN APR 26 2015

NOTE: "FAIR" INDICATES FEW OR NO CLOUDS BELOW 12,000 FEET WITH NO
SIGNIFICANT WEATHER AND/OR OBSTRUCTIONS TO VISIBILITY.

* - THESE STATIONS ARE NOT NWS STATIONS...THUS NOT UNDER NWS
QUALITY CONTROL.  THEY ALSO DO NOT REPORT WEATHER SUCH
AS PRECIPITATION OR FOG.

IAZ001>003-012>014-020>022-031>034-043>046-261200-
   NORTHWEST IOWA

CITY           SKY/WX    TMP DP  RH WIND       PRES   REMARKS
CARROLL *      CLEAR     37  37 100 N8        29.99R WCI  31
CHEROKEE *     CLEAR     36  36 100 NE6       30.00R FOG     WCI  31
DENISON *      CLEAR     39  39 100 E5        29.96R
LE MARS *      CLEAR     39  37  93 N6        30.01R WCI  35
ORANGE CITY *  CLEAR     37  34  87 NE6       30.00R WCI  33
SHELDON *      CLEAR     34  34 100 NE9       30.00R WCI  26
SIOUX CITY     PTCLDY    42  36  79 E5        29.99R
SPENCER        CLEAR     34  30  85 N3        30.01R FOG
STORM LAKE *   CLEAR     39  37  93 NE8       30.00R WCI  34
$$

IAZ055>058-069>071-079>083-090>094-261200-
   SOUTHWEST IOWA

CITY           SKY/WX    TMP DP  RH WIND       PRES   REMARKS
ATLANTIC *     PTCLDY    39  39 100 CALM      29.97R
AUDUBON *      CLEAR     39  36  87 NE3       29.98R
CLARINDA *     CLOUDY    43  39  87 NE8       29.97R
COUNCIL BLFS * CLEAR     39  39 100 NE6       29.97R WCI  35
CRESTON *      CLEAR     39  39 100 E8        29.96R WCI  34
HARLAN  *      CLEAR     39  39 100 N5        30.00R
LAMONI         CLEAR     40  36  86 NE7       29.94R
RED OAK *      CLEAR     37  37 100 N5        29.97R WCI  34
SHENANDOAH *   CLOUDY    43  41  93 NE8       29.96R
$$

IAZ047>049-059>061-072>074-084-261200-
   CENTRAL IOWA

CITY           SKY/WX    TMP DP  RH WIND       PRES   REMARKS
AMES           CLEAR     36  33  89 N5        29.99R WCI  32
ANKENY *       CLEAR     39  36  87 N8        29.98R WCI  34
CHARITON *     MOCLDY    43  39  87 NE6       29.96R
DES MOINES     PTCLDY    42  36  79 NE6       29.98R
GRINNELL*      CLEAR     39  34  81 N8        29.98R WCI  34
KNOXVILLE *    CLEAR     43  37  81 NE6       29.95R
MARSHALLTOWN   CLEAR     35  31  85 NE7       29.98R WCI  29
PELLA *        PTCLDY    39  39 100 NE3       29.98R
PERRY *          N/A     41  39  93 NE7       29.98R
$$

IAZ004>006-015-016-023>025-035-036-261200-
   NORTH CENTRAL IOWA

CITY           SKY/WX    TMP DP  RH WIND       PRES   REMARKS
ALGONA *       CLEAR     36  36 100 CALM      30.01R
CLARION *      CLEAR     34  34 100 E6        30.00R WCI  29
ESTHERVILLE    CLEAR     31  29  92 NW7       30.00R FOG     WCI  24
FORT DODGE *   PTCLDY    36  32  87 N3        30.00S
MASON CITY     CLEAR     31  29  92 NE5       30.02R FOG     WCI  26
FOREST CITY *  FOG       28  28 100 CALM      30.01R VSB 1/2
IOWA FALLS *     N/A     36  34  93 CALM      30.01R
$$

IAZ007>011-017>019-026>030-037>042-050>054-066-261200-
   NORTHEAST IOWA

CITY           SKY/WX    TMP DP  RH WIND       PRES   REMARKS
CEDAR RAPIDS   CLEAR     37  30  75 N6        29.97R WCI  32
CHARLES CITY * CLEAR     36  23  60 E7        30.01R WCI  30
CLINTON *      CLEAR     34  27  75 N12       29.98R WCI  25
DECORAH *      CLEAR     37  18  44 NE3       30.00R
DUBUQUE        CLEAR     34  21  59 NE12      29.97R WCI  25
MONTICELLO *   CLEAR     32  30  93 NW7       29.98R WCI  26
OELWEIN *      CLEAR     34  23  64 NE7       30.00S WCI  28
WATERLOO       CLEAR     32  26  78 NE5       29.99S WCI  27
$$

IAZ064-065-067-068-078-261200-
   EAST CENTRAL IOWA

CITY           SKY/WX    TMP DP  RH WIND       PRES   REMARKS
DAVENPORT      CLEAR     34  26  72 NE8       29.96R WCI  27
IOWA CITY      CLEAR     39  30  70 NE8       29.98R WCI  33
MT. PLEASANT * CLEAR     37  36  93 N7        29.95R WCI  32
MUSCATINE *    CLEAR     37  30  75 NE6       29.96R WCI  33
QUAD CITIES    CLEAR     38  30  73 CALM      29.95R
$$

IAZ062-063-075>077-085>089-095>099-261200-
   SOUTHEAST IOWA

CITY           SKY/WX    TMP DP  RH WIND       PRES   REMARKS
BURLINGTON     CLEAR     39  32  76 NE8       29.93R WCI  33
FAIRFIELD *    CLEAR     37  34  87 NE8       29.95R WCI  31
FORT MADISON * CLEAR     39  32  75 NE5       29.94R
KEOKUK *       MOCLDY    41  32  70 NE5       29.92R
OSKALOOSA *      N/A     37  36  93 NE8       29.97R WCI  31
CENTERVILLE *  CLEAR     39  37  93 NE7       29.96R WCI  34
OTTUMWA        PTCLDY    39  35  86 NE7       29.95R WCI  34
WASHINGTON *   CLEAR     39  39 100 N9        29.96R WCI  33
$$

ABBREVIATIONS USED IN REMARKS
   TC - TEMPERATURES IN CELSIUS
  WCI - WIND CHILL INDEX
   HX - HEAT INDEX
  VSB - VISIBILITY
$$



USA.gov is the U.S. government's official web portal to all federal, state and local government web resources and services.